Regional Weather Roundup
Issued by NWS

Home | Current Version | Previous Version | Graphics & Text | Print | Product List | Glossary On
Versions: 1 2 3 4 5 6 7 8 9 10 11 12 13 14 15 16 17 18 19 20 21 22 23 24 25 26 27 28 29 30 31 32 33 34 35 36 37 38 39 40 41 42 43 44 45 46 47 48 49 50
000
ASUS43 KBIS 210002
RWRND

NORTH DAKOTA REGIONAL WEATHER ROUNDUP
NATIONAL WEATHER SERVICE BISMARCK ND
700 PM CDT SUN AUG 20 2017

NOTE: "FAIR" INDICATES FEW OR NO CLOUDS BELOW 12,000 FEET WITH NO
SIGNIFICANT WEATHER AND/OR OBSTRUCTIONS TO VISIBILITY.


NDZ001>003-009>011-017-210100-
NORTHWEST NORTH DAKOTA

CITY           SKY/WX    TMP DP  RH WIND       PRES   REMARKS
WILLISTON      PTSUNNY   77  38  24 SE9       29.96F
6HR MIN TEMP:  72; 6HR MAX TEMP:  80;

MINOT          SUNNY     78  34  20 CALM      29.98F
MINOT AFB        N/A     76  35  22 CALM      29.97S
$$

NDZ018>021-031>035-040>046-210100-
SOUTHWEST NORTH DAKOTA

CITY           SKY/WX    TMP DP  RH WIND       PRES   REMARKS
BISMARCK       CLOUDY    69  50  50 S3        30.04S
6HR MIN TEMP:  68; 6HR MAX TEMP:  75; 6HR PCP: TRACE;

DICKINSON      CLOUDY    69  46  43 SE12      30.01S
GARRISON         N/A     70  48  45 S6        30.01R
6HR MIN TEMP:  67; 6HR MAX TEMP:  74;

HETTINGER ARPT SUNNY     70  46  42 E15       30.03F
$$

NDZ004>008-012>016-024-026-027-054-210100-
NORTHEAST NORTH DAKOTA

CITY           SKY/WX    TMP DP  RH WIND       PRES   REMARKS
GRAND FORKS    MOSUNNY   76  48  37 N6        29.97R
GRND FRKS AFB  SUNNY     74  45  34 W5        29.99R
DEVILS LAKE    SUNNY     73  45  36 SW7       30.01S
$$

NDZ022-023-025-028>030-036>039-047>053-210100-
SOUTHEAST NORTH DAKOTA

CITY           SKY/WX    TMP DP  RH WIND       PRES   REMARKS
FARGO          SUNNY     75  48  38 W6        30.00R
6HR MIN TEMP:  73; 6HR MAX TEMP:  77;

JAMESTOWN      MOSUNNY   69  56  62 CALM      30.01F
$$





USA.gov is the U.S. government's official web portal to all federal, state and local government web resources and services.